Airfield :







YOU CAN JOIN US ON...

 
LOGIN :

Register | Disclaimer

   EN    FR    IT 

 









Legend :    VFR   Marginal VFR   IFR   Intensive IFR   Very Intensive IFR
Visi :
Ceiling :
>= 8 km
>= 3000ft
5 to 8 km
1000 to 3000 ft
1500m to 5 km
500 to 1000 ft
800 to 1500m
200 to 500 ft
< 800m
< 200 ft
Symbols :   Thunderstorms  Fog  Heavy snow  Heavy precipitations  Wind > 20 kt






- Airport Elevation : 1040 ft


KAFN - Jaffrey Silver Ranch

CURRENT METAR :
  • 171952Z AUTO 00000KT 10SM OVC008 19/18 A3030 RMK AO2 SLP263 T01940178

EXPIRED METARs :
  • 171852Z AUTO 00000KT 10SM OVC009 20/18 A3030 RMK AO2 SLP265 T02000178
  • 171835Z AUTO 00000KT 10SM OVC009 19/18 A3031 RMK AO2 T01940178
  • 171752Z AUTO 00000KT 10SM OVC010 20/18 A3031 RMK AO2 SLP269 T02000178 10200 20150 56017
  • 171652Z AUTO 01004KT 10SM OVC010 19/17 A3033 RMK AO2 SLP274 T01940172

TAF N/A
KZBW FIR / North America



MET'MAP, your aeronautical weather chart ! - Copyright ORBIFLY December 2007 - Disclaimer

ORBIFLY MET'MAP TEAM :

Programming & Development : Alexandra Zaïnal
Concept & original design : Baudouin d'Aumeries
Assistance for programming : Marc-Olivier Méhu
Technical & hardware support : Manuel Goepfert

Contact : metmap@orbifly.com




SOURCES & CREDITS :

   NOAA